TimePST,TemperatureF,Dew PointF,Humidity,Sea Level PressureIn,VisibilityMPH,Wind Direction,Wind SpeedMPH,Gust SpeedMPH,PrecipitationIn,Events,Conditions,WindDirDegrees,DateUTC
12:56 AM,35.6,12.2,38,30.27,10.0,Calm,Calm,-,N/A,,Clear,0,2013-01-02 08:56:00
1:56 AM,33.1,14.0,46,30.30,10.0,WSW,5.8,-,N/A,,Clear,240,2013-01-02 09:56:00
2:56 AM,32.0,14.0,48,30.29,10.0,West,5.8,-,N/A,,Clear,260,2013-01-02 10:56:00
3:56 AM,33.1,14.0,46,30.28,10.0,SSW,5.8,-,N/A,,Clear,200,2013-01-02 11:56:00
4:56 AM,30.0,14.0,51,30.27,10.0,SSW,6.9,-,N/A,,Clear,200,2013-01-02 12:56:00
5:56 AM,34.0,12.0,40,30.27,10.0,West,4.6,-,N/A,,Clear,280,2013-01-02 13:56:00
6:56 AM,33.1,12.9,43,30.28,10.0,South,6.9,-,N/A,,Clear,180,2013-01-02 14:56:00
7:56 AM,35.1,14.0,42,30.28,10.0,SSW,8.1,-,N/A,,Clear,200,2013-01-02 15:56:00
8:56 AM,41.0,12.0,31,30.28,10.0,Calm,Calm,-,N/A,,Clear,0,2013-01-02 16:56:00
9:56 AM,43.0,10.9,27,30.28,10.0,ENE,3.5,-,N/A,,Partly Cloudy,70,2013-01-02 17:56:00
10:56 AM,46.0,10.9,24,30.25,10.0,Calm,Calm,-,N/A,,Partly Cloudy,0,2013-01-02 18:56:00
11:56 AM,48.9,10.9,22,30.21,10.0,Calm,Calm,-,N/A,,Scattered Clouds,0,2013-01-02 19:56:00
12:56 PM,48.0,10.9,22,30.16,10.0,SSE,3.5,-,N/A,,Scattered Clouds,150,2013-01-02 20:56:00
1:56 PM,48.9,10.9,22,30.16,10.0,Calm,Calm,-,N/A,,Partly Cloudy,0,2013-01-02 21:56:00
2:56 PM,51.1,10.9,20,30.14,10.0,South,4.6,-,N/A,,Partly Cloudy,170,2013-01-02 22:56:00
3:56 PM,51.1,10.9,20,30.14,10.0,Calm,Calm,-,N/A,,Clear,0,2013-01-02 23:56:00
4:56 PM,50.0,12.0,22,30.14,10.0,South,5.8,-,N/A,,Clear,180,2013-01-03 00:56:00
5:56 PM,46.9,14.0,27,30.14,10.0,SSW,5.8,-,N/A,,Clear,200,2013-01-03 01:56:00
6:56 PM,43.0,15.1,32,30.17,10.0,West,6.9,-,N/A,,Clear,260,2013-01-03 02:56:00
7:56 PM,42.1,16.0,35,30.19,10.0,South,6.9,-,N/A,,Clear,190,2013-01-03 03:56:00
8:56 PM,43.0,14.0,31,30.20,10.0,South,4.6,-,N/A,,Clear,170,2013-01-03 04:56:00
9:56 PM,42.1,12.9,31,30.21,10.0,NE,4.6,-,N/A,,Clear,50,2013-01-03 05:56:00
10:56 PM,42.1,12.0,29,30.20,10.0,Calm,Calm,-,N/A,,Clear,0,2013-01-03 06:56:00
11:56 PM,39.9,12.0,32,30.19,10.0,South,3.5,-,N/A,,Clear,180,2013-01-03 07:56:00